Date String (YYYY-MM-DD hh:mm:ss) UTC,Instrument flags,Ambient pressure (hPa),Sample flow (lpm),Bypass flow (lpm),Sample temperature (°C),Ambient temperature (°C),ASC tube jacket temperature (°C),LED temperature (°C),Box temperature (°C),Sample RH (%),Span deviation,Mass concentration (μg/m³),Mass concentration (μg/m³),Mass concentration (μg/m³)
DateTimeUTC,F1_M11,P_M11,Q1_M11,Q2_M11,T1_M11,T2_M11,T3_M11,T4_M11,T5_M11,U1_M11,ZSPAN_M11,X2_M11,X0_M11,X1_M11
2021-08-24 10:00:00,,0826.5,4.99,0.00,29.4,28.1,00.0,38.5,31.1,11.8,0000.0,0002.44,0003.61,0002.13
2021-08-24 10:01:00,,0826.6,4.99,0.00,29.4,28.2,00.0,38.5,31.2,12.0,0000.0,0002.47,0003.69,0002.14
2021-08-24 10:02:00,,0826.7,4.99,0.00,29.4,28.3,00.0,38.5,31.2,12.2,0000.0,0002.51,0003.73,0002.16
2021-08-24 10:03:00,,0826.7,5.02,0.00,29.4,28.4,00.0,38.5,31.2,12.2,0000.0,0002.53,0004.43,0002.18
2021-08-24 10:04:00,,0826.6,4.98,0.00,29.5,28.5,00.0,38.6,31.2,12.2,0000.0,0002.54,0004.62,0002.18
2021-08-24 10:05:00,,0826.7,5.02,0.00,29.5,28.5,00.0,38.6,31.3,12.1,0000.0,0002.55,0004.51,0002.19
2021-08-24 10:06:00,,0826.7,5.00,0.00,29.5,28.6,00.0,38.6,31.3,12.0,0000.0,0002.54,0004.47,0002.19
2021-08-24 10:07:00,,0826.6,5.00,0.00,29.5,28.6,00.0,38.6,31.3,12.0,0000.0,0002.53,0004.47,0002.19
2021-08-24 10:08:00,,0826.7,5.00,0.00,29.5,28.7,00.0,38.6,31.3,12.0,0000.0,0002.50,0004.61,0002.20
2021-08-24 10:09:00,,0826.7,5.00,0.00,29.5,28.7,00.0,38.6,31.3,12.0,0000.0,0002.48,0004.57,0002.19
2021-08-24 10:10:00,,0826.6,4.99,0.00,29.6,28.7,00.0,38.6,31.3,12.1,0000.0,0002.46,0004.45,0002.18
2021-08-24 10:11:00,,0826.7,4.99,0.00,29.6,28.8,00.0,38.6,31.4,12.1,0000.0,0002.48,0004.48,0002.20
2021-08-24 10:12:00,,0826.6,5.00,0.00,29.6,28.8,00.0,38.6,31.4,12.1,0000.0,0002.53,0004.55,0002.22
2021-08-24 10:13:00,,0826.7,4.99,0.00,29.6,28.8,00.0,38.7,31.4,12.1,0000.0,0002.55,0004.88,0002.23
2021-08-24 10:14:00,,0826.7,5.01,0.00,29.6,28.9,00.0,38.7,31.4,12.1,0000.0,0002.58,0004.41,0002.26
2021-08-24 10:15:00,,0826.7,5.01,0.00,29.7,28.9,00.0,38.7,31.4,12.1,0000.0,0002.60,0004.01,0002.28
2021-08-24 10:16:00,,0826.7,5.00,0.00,29.7,28.9,00.0,38.7,31.5,12.1,0000.0,0002.63,0004.03,0002.31
2021-08-24 10:17:00,,0826.7,5.00,0.00,29.7,28.9,00.0,38.7,31.5,12.1,0000.0,0002.68,0004.29,0002.33
2021-08-24 10:18:00,,0826.6,5.01,0.00,29.7,28.9,00.0,38.7,31.5,12.2,0000.0,0002.71,0004.33,0002.36
2021-08-24 10:19:00,,0826.7,5.00,0.00,29.7,28.9,00.0,38.7,31.5,12.2,0000.0,0002.78,0004.14,0002.39
2021-08-24 10:20:00,,0826.7,5.02,0.00,29.7,29.0,00.0,38.8,31.5,12.2,0000.0,0002.81,0004.13,0002.43
2021-08-24 10:21:00,,0826.7,5.00,0.00,29.7,29.0,00.0,38.8,31.5,12.4,0000.0,0002.84,0004.22,0002.47
2021-08-24 10:22:00,,0826.7,5.00,0.00,29.7,29.0,00.0,38.8,31.5,12.5,0000.0,0002.95,0004.64,0002.52
2021-08-24 10:23:00,,0826.7,4.99,0.00,29.7,29.0,00.0,38.8,31.5,12.5,0000.0,0003.01,0005.14,0002.55
2021-08-24 10:24:00,,0826.7,5.00,0.00,29.8,29.0,00.0,38.8,31.5,12.5,0000.0,0003.04,0005.03,0002.57
2021-08-24 10:25:00,,0826.7,5.00,0.00,29.8,29.1,00.0,38.8,31.5,12.6,0000.0,0003.07,0004.99,0002.59
2021-08-24 10:26:00,,0826.7,5.01,0.00,29.8,29.1,00.0,38.8,31.5,12.4,0000.0,0003.12,0005.77,0002.62
2021-08-24 10:27:00,,0826.7,5.00,0.00,29.8,29.1,00.0,38.8,31.6,12.4,0000.0,0003.13,0006.02,0002.64
2021-08-24 10:28:00,,0826.7,5.00,0.00,29.8,29.1,00.0,38.9,31.6,12.4,0000.0,0003.13,0005.88,0002.66
2021-08-24 10:29:00,,0826.7,5.01,0.00,29.8,29.1,00.0,38.9,31.6,12.3,0000.0,0003.17,0006.08,0002.68
2021-08-24 10:30:00,,0826.7,5.00,0.00,29.8,29.1,00.0,38.9,31.6,12.2,0000.0,0003.17,0006.21,0002.68
2021-08-24 10:31:00,,0826.7,5.00,0.00,29.8,29.1,00.0,38.9,31.6,12.1,0000.0,0003.17,0006.34,0002.66
2021-08-24 10:32:00,,0826.7,5.00,0.00,29.8,29.0,00.0,38.9,31.5,12.1,0000.0,0003.18,0006.34,0002.65
2021-08-24 10:33:00,,0826.7,5.01,0.00,29.7,27.5,00.0,38.8,31.1,12.1,0000.0,0003.14,0006.39,0002.63
2021-08-24 10:34:00,,0826.8,5.01,0.00,29.5,26.3,00.0,38.8,30.7,12.2,0000.0,0003.11,0006.37,0002.61
2021-08-24 10:35:00,,0826.8,5.00,0.00,29.4,26.3,00.0,38.7,30.7,12.4,0000.0,0003.11,0006.32,0002.61
2021-08-24 10:36:00,,0826.8,4.99,0.00,29.3,26.7,00.0,38.7,30.7,12.3,0000.0,0003.09,0006.33,0002.60
2021-08-24 10:37:00,,0826.8,5.00,0.00,29.3,27.1,00.0,38.6,30.8,12.3,0000.0,0003.08,0005.58,0002.57
2021-08-24 10:38:00,,0826.8,5.00,0.00,29.3,27.4,00.0,38.6,30.9,12.5,0000.0,0003.12,0005.55,0002.56
2021-08-24 10:39:00,,0826.8,4.99,0.00,29.4,27.7,00.0,38.6,31.0,12.6,0000.0,0003.12,0005.55,0002.53
2021-08-24 10:40:00,,0826.8,5.01,0.00,29.4,27.9,00.0,38.6,31.1,12.7,0000.0,0003.07,0005.36,0002.52
2021-08-24 10:41:00,,0826.8,5.00,0.00,29.4,28.1,00.0,38.6,31.1,12.8,0000.0,0003.07,0005.18,0002.51
2021-08-24 10:42:00,,0826.8,5.03,0.00,29.4,28.3,00.0,38.6,31.2,12.7,0000.0,0003.10,0005.17,0002.52
2021-08-24 10:43:00,,0826.8,5.01,0.00,29.4,28.4,00.0,38.6,31.2,12.7,0000.0,0003.11,0005.21,0002.51
2021-08-24 10:44:00,,0827.0,4.99,0.00,29.5,28.4,00.0,38.6,31.2,12.8,0000.0,0003.12,0004.76,0002.51
2021-08-24 10:45:00,,0826.8,5.00,0.00,29.5,28.5,00.0,38.6,31.3,12.8,0000.0,0003.12,0004.37,0002.51
2021-08-24 10:46:00,,0826.9,5.00,0.00,29.5,28.6,00.0,38.6,31.3,12.7,0000.0,0003.11,0004.48,0002.51
2021-08-24 10:47:00,,0826.8,4.99,0.00,29.5,28.6,00.0,38.6,31.3,12.7,0000.0,0003.12,0004.65,0002.51
2021-08-24 10:48:00,,0826.8,5.01,0.00,29.5,28.6,00.0,38.6,31.3,12.7,0000.0,0003.08,0004.52,0002.51
2021-08-24 10:49:00,,0826.7,4.98,0.00,29.5,28.7,00.0,38.6,31.3,12.6,0000.0,0003.03,0004.36,0002.52
2021-08-24 10:50:00,,0826.7,5.00,0.00,29.5,28.7,00.0,38.6,31.3,12.7,0000.0,0003.03,0004.33,0002.54
2021-08-24 10:51:00,,0826.8,5.00,0.00,29.5,28.7,00.0,38.6,31.3,12.6,0000.0,0003.00,0004.26,0002.54
2021-08-24 10:52:00,,0826.8,5.00,0.00,29.5,28.7,00.0,38.7,31.3,12.7,0000.0,0002.95,0004.35,0002.54
2021-08-24 10:53:00,,0826.8,4.99,0.00,29.6,28.8,00.0,38.7,31.3,12.7,0000.0,0002.95,0005.37,0002.55
2021-08-24 10:54:00,,0826.8,4.99,0.00,29.6,28.8,00.0,38.7,31.3,12.6,0000.0,0002.93,0005.31,0002.56
2021-08-24 10:55:00,,0826.8,5.01,0.00,29.6,28.8,00.0,38.7,31.4,12.5,0000.0,0002.90,0005.31,0002.54
2021-08-24 10:56:00,,0826.9,5.00,0.00,29.6,28.9,00.0,38.7,31.4,12.4,0000.0,0002.88,0005.28,0002.53
2021-08-24 10:57:00,,0827.1,4.99,0.00,29.7,28.9,00.0,38.7,31.5,12.4,0000.0,0002.91,0005.37,0002.53
2021-08-24 10:58:00,,0827.0,5.01,0.00,29.7,28.9,00.0,38.7,31.5,12.5,0000.0,0002.89,0005.33,0002.54
2021-08-24 10:59:00,,0826.9,5.00,0.00,29.7,29.0,00.0,38.7,31.5,12.6,0000.0,0002.90,0005.38,0002.54
